Weather in Hanam

South Korea     37°32′16″N   127°12′16″E
temp.,
°C
wind,
m/s
gust,
m/s
humid.,
%
clouds,
%
prec.,
mm/h
press.,
hPa
HPBL,
m
19 september, sun
sun1900:00+19e11805 0.0 101714
03:00+18e118481 0.0 101732
06:00+17e1192100 0.0 101725
09:00+22e11715 0.0 1017363
12:00+27e115482 0.0 10161188
15:00+27ene214627 0.0 10141681
18:00+23ne125726 0.0 101585
21:00+21e116011 0.0 101630
20 september, mon
mon2000:00+19e11665 0.0 101528
03:00+17e117026 0.0 101433
06:00+16e22787 0.0 101540
09:00+21ese246550 0.0 1014441
12:00+25se5747100 0.0 10121123
15:00+26sse694486 0.0 10101428
18:00+23se51062100 0.0 1009849
21:00+21se51268100 0.0 1008686
21 september, tue
tue2100:00+20ese2473100 0.0 1010232
03:00+18se1294100 4.1 1006139
06:00+18sse1298100 17.4 1006162
09:00+19se1296100 21.8 1007226
12:00+23ssw2373100 0.3 1006964
15:00+26wsw45542 0.6 10051524
18:00+22wsw35760 0.0 1005348
21:00+19s24900 1.8 1006235
22 september, wed
wed2200:00+19sse269433 0.1 1006278
03:00+18sse2697100 5.2 1005284
06:00+18sse2598100 12.8 1005295
09:00+19s1396100 16.4 1006338
12:00+21ssw368022 1.1 1006930
15:00+22w58728 2.9 10061298
18:00+19w48722 0.1 1007869
21:00+17wnw24855 0.2 1009262
23 september, thu
thu2300:00+16w13908 0.3 1009220
03:00+15w12930 0.4 100986
06:00+14w139316 0.0 1011136
09:00+18wnw247657 0.0 1013779
12:00+22wnw2456100 0.0 10131171
15:00+24wnw4552100 0.0 10131520
18:00+20nw2370100 0.0 1014234
21:00+19ssw117788 0.0 101719